Weather History for KARM - December, 2012

Change the Weather History Date:

Tuesday, December 4, 2012

  Actual Average (KPSX) Record (KPSX)
Temperature  
Mean Temperature 68 °F -  
Max Temperature 78 °F 67 °F 83 °F (1992)
Min Temperature 57 °F 47 °F 31 °F (1991)
Cooling Degree Days 4    
Growing Degree Days 18 (Base 50)    
Moisture  
Dew Point 63 °F    
Average Humidity 90    
Maximum Humidity 100    
Minimum Humidity 57    
Precipitation  
Precipitation 0.00 in - - ()
Sea Level Pressure  
Sea Level Pressure 30.10 in    
Wind  
Wind Speed 5 mph (SSW)    
Max Wind Speed 15 mph    
Max Gust Speed 21 mph    
Visibility 6 miles    
Events Fog , Rain , Thunderstorm    
Averages and records for this station are not official NWS values.
T = Trace of Precipitation, MM = Missing Value Source: NWS Daily Summary

Daily Weather History Graph

Daily Weather History Graph

Search for Another Location

Airport or City:

Trip Planner

Search our weather history database for the weather conditions in past years. The results will help you decide how hot, cold, wet, or windy it might be!

Date:

Astronomy

Dec. 04, 2012 Rise Set
Actual Time 7:03 AM CST 5:26 PM CST
Civil Twilight 6:38 AM CST 5:51 PM CST
Nautical Twilight 6:08 AM CST 6:21 PM CST
Astronomical Twilight 5:39 AM CST 6:50 PM CST
Moon 10:56 PM CST (12/4) 11:14 AM CST (12/4)
Length of Visible Light 11h 13m
Length of Day
10h 22m
Waning Gibbous, 69% of the Moon is Illuminated
Dec 4
Waning Gibbous
Dec 6
Last Quarter
Dec 13
New
Dec 19
First Quarter
Dec 28
Full

Hourly Weather History & Observations

Time (CST) Temp. Dew Point Humidity Pressure Visibility Wind Dir Wind Speed Gust Speed Precip Events Conditions
12:15 AM 66.2 °F 64.4 °F 94% 30.04 in 10.0 mi SSE 9.2 mph - N/A   Clear
12:35 AM 68.0 °F 64.4 °F 88% 30.04 in 10.0 mi SSE 8.1 mph - N/A   Clear
12:55 AM 68.0 °F 64.4 °F 88% 30.03 in 10.0 mi SSE 9.2 mph - N/A   Clear
1:15 AM 68.0 °F 66.2 °F 94% 30.04 in 10.0 mi SSE 8.1 mph - N/A   Clear
1:35 AM 68.0 °F 66.2 °F 94% 30.03 in 10.0 mi SSE 8.1 mph - N/A   Clear
1:55 AM 68.0 °F 66.2 °F 94% 30.03 in 7.0 mi South 6.9 mph - N/A   Clear
2:15 AM 68.0 °F 64.4 °F 88% 30.04 in 10.0 mi South 5.8 mph - N/A   Clear
2:55 AM 64.4 °F 64.4 °F 100% 30.06 in 3.0 mi Calm Calm - N/A   Clear
3:15 AM 64.4 °F 62.6 °F 94% 30.06 in 2.5 mi East 3.5 mph - N/A   Clear
3:35 AM 64.4 °F 64.4 °F 100% 30.06 in 3.0 mi ESE 3.5 mph - N/A   Clear
3:55 AM 62.6 °F 62.6 °F 100% 30.07 in 0.8 mi Calm Calm - N/A   Mist
4:15 AM 62.6 °F 62.6 °F 100% 30.06 in 0.2 mi East 3.5 mph - N/A Fog Fog
4:35 AM 62.6 °F 62.6 °F 100% 30.06 in 3.0 mi Calm Calm - N/A   Clear
4:55 AM 60.8 °F 60.8 °F 100% 30.07 in 0.5 mi Calm Calm - N/A Fog Fog
5:15 AM 60.8 °F 60.8 °F 100% 30.07 in 0.2 mi Calm Calm - N/A Fog Fog
5:35 AM 59.0 °F 59.0 °F 100% 30.08 in 0.5 mi Calm Calm - N/A Fog Fog
5:55 AM 59.0 °F 59.0 °F 100% 30.08 in 0.5 mi Calm Calm - N/A Fog Fog
6:15 AM 59.0 °F 59.0 °F 100% 30.10 in 0.2 mi Calm Calm - N/A Fog Fog
6:35 AM 62.6 °F 60.8 °F 94% 30.10 in 0.5 mi Calm Calm - N/A Fog Fog
6:55 AM 62.6 °F 60.8 °F 94% 30.10 in 0.5 mi Calm Calm - N/A Fog Fog
7:15 AM 62.6 °F 62.6 °F 100% 30.11 in 0.2 mi Calm Calm - N/A Fog Fog
7:35 AM 62.6 °F 62.6 °F 100% 30.11 in 0.2 mi Calm Calm - N/A Fog Fog
7:55 AM 62.6 °F 62.6 °F 100% 30.13 in 0.2 mi Calm Calm - N/A Fog Fog
8:15 AM 64.4 °F 62.6 °F 94% 30.13 in 0.5 mi Calm Calm - N/A Fog Fog
8:35 AM 64.4 °F 64.4 °F 100% 30.13 in 0.2 mi ESE 3.5 mph - N/A Fog Fog
8:55 AM 68.0 °F 66.2 °F 94% 30.13 in 0.2 mi SE 4.6 mph - N/A Fog Fog
9:35 AM 71.6 °F 69.8 °F 94% 30.16 in 10.0 mi SE 3.5 mph - N/A   Scattered Clouds
9:55 AM 71.6 °F 69.8 °F 94% 30.16 in 10.0 mi SSW 8.1 mph - N/A   Scattered Clouds
10:15 AM 71.6 °F 71.6 °F 100% 30.16 in 10.0 mi SSW 10.4 mph - N/A   Mostly Cloudy
10:35 AM 77.0 °F 69.8 °F 78% 30.16 in 10.0 mi South 8.1 mph - N/A   Scattered Clouds
10:55 AM 78.8 °F 66.2 °F 65% 30.15 in 10.0 mi SSW 12.7 mph - N/A   Scattered Clouds
11:35 AM 78.8 °F 66.2 °F 65% 30.14 in 10.0 mi WSW 10.4 mph - N/A   Overcast
11:55 AM 78.8 °F 64.4 °F 61% 30.13 in 10.0 mi SW 9.2 mph - N/A   Mostly Cloudy
12:15 PM 78.8 °F 62.6 °F 57% 30.11 in 10.0 mi SSW 9.2 mph - N/A   Scattered Clouds
12:35 PM 78.8 °F 62.6 °F 57% 30.11 in 10.0 mi SW 8.1 mph - N/A   Scattered Clouds
12:55 PM 78.8 °F 64.4 °F 61% 30.10 in 10.0 mi SW 9.2 mph - N/A Thunderstorm Mostly Cloudy
1:15 PM 77.0 °F 64.4 °F 65% 30.08 in 10.0 mi WSW 8.1 mph - N/A Thunderstorm Scattered Clouds
1:35 PM 77.0 °F 64.4 °F 65% 30.08 in 5.0 mi SW 15.0 mph 20.7 mph N/A Rain , Thunderstorm Heavy Thunderstorms and Rain
1:55 PM 71.6 °F 66.2 °F 83% 30.07 in 10.0 mi SSW 4.6 mph - N/A Rain , Thunderstorm Light Thunderstorms and Rain
2:15 PM 71.6 °F 68.0 °F 88% 30.07 in 10.0 mi WSW 3.5 mph - N/A Thunderstorm Scattered Clouds
2:35 PM 71.6 °F 68.0 °F 88% 30.08 in 10.0 mi SSW 4.6 mph - N/A Thunderstorm Thunderstorm
2:55 PM 71.6 °F 68.0 °F 88% 30.08 in 10.0 mi SW 6.9 mph - N/A Thunderstorm Mostly Cloudy
3:15 PM 69.8 °F 62.6 °F 78% 30.11 in 10.0 mi North 12.7 mph - N/A Thunderstorm Mostly Cloudy
3:35 PM 64.4 °F 62.6 °F 94% 30.11 in 7.0 mi North 12.7 mph 17.3 mph N/A Rain , Thunderstorm Thunderstorms and Rain
3:55 PM 62.6 °F 60.8 °F 94% 30.11 in 7.0 mi NNW 6.9 mph - N/A Rain , Thunderstorm Light Thunderstorms and Rain
4:55 PM 64.4 °F 62.6 °F 94% 30.11 in 3.0 mi Calm Calm - N/A Rain , Thunderstorm Thunderstorms and Rain
5:35 PM 62.6 °F 60.8 °F 94% 30.11 in 10.0 mi NNE 6.9 mph - N/A Thunderstorm Thunderstorm
5:55 PM 62.6 °F 60.8 °F 94% 30.12 in 10.0 mi NNW 3.5 mph - N/A Thunderstorm Scattered Clouds
7:35 PM 62.6 °F 60.8 °F 94% 30.16 in 10.0 mi East 4.6 mph - N/A Rain Light Rain
8:35 PM 60.8 °F 60.8 °F 100% 30.16 in 10.0 mi North 4.6 mph - N/A   Clear
8:55 PM 60.8 °F 60.8 °F 100% 30.16 in 10.0 mi North 4.6 mph - N/A   Scattered Clouds
9:15 PM 60.8 °F 60.8 °F 100% 30.16 in 10.0 mi NW 5.8 mph - N/A   Clear
9:35 PM 60.8 °F 60.8 °F 100% 30.15 in 7.0 mi NW 3.5 mph - N/A   Clear
9:55 PM 60.8 °F 60.8 °F 100% 30.15 in 7.0 mi Calm Calm - N/A   Clear
10:15 PM 60.8 °F 60.8 °F 100% 30.16 in 5.0 mi Calm Calm - N/A   Clear
10:35 PM 59.0 °F 59.0 °F 100% 30.16 in 1.2 mi Calm Calm - N/A   Mist
10:55 PM 59.0 °F 57.2 °F 94% 30.16 in 0.2 mi Calm Calm - N/A Fog Fog
11:55 PM 57.2 °F 55.4 °F 94% 30.17 in 0.5 mi Calm Calm - N/A Fog Fog